This is the latest recevied weather packets stored in our database for station/object LU3GHF-13. If no packets are shown the sender has not sent any weather packets the latest 10 day(s).
| Time | Temp. | Humidity | Pressure | Rain* | Wind** | Luminosity | Snow |
|---|---|---|---|---|---|---|---|
| 1788551159 | 22.78° C | 42% | 1007.8 hPa | - | - | - | - |
| 1788550551 | 23.33° C | 41% | 1007.8 hPa | - | - | - | - |
| 1788549939 | 23.33° C | 41% | 1007.8 hPa | - | - | - | - |
| 1788549293 | 22.78° C | 43% | 1007.9 hPa | - | - | - | - |
| 1788548644 | 23.33° C | 42% | 1007.9 hPa | - | - | - | - |
| 1788548028 | 23.89° C | 40% | 1007.8 hPa | - | - | - | - |
| 1788547387 | 23.89° C | 40% | 1008 hPa | - | - | - | - |
| 1788546737 | 26.11° C | 39% | 1008 hPa | - | - | - | - |
| 1788546093 | 25° C | 39% | 1008.3 hPa | - | - | - | - |
| 1788545460 | 24.44° C | 41% | 1008.4 hPa | - | - | - | - |
| 1788544826 | 24.44° C | 38% | 1008.3 hPa | - | - | - | - |
| 1788544198 | 24.44° C | 38% | 1008.4 hPa | - | - | - | - |
| 1788543598 | 24.44° C | 40% | 1008.6 hPa | - | - | - | - |
| 1788542968 | 23.89° C | 41% | 1008.8 hPa | - | - | - | - |
| 1788542311 | 23.89° C | 41% | 1008.9 hPa | - | - | - | - |
| 1788541669 | 23.33° C | 42% | 1009.2 hPa | - | - | - | - |
| 1788541044 | 23.89° C | 42% | 1009.2 hPa | - | - | - | - |
| 1788540388 | 23.89° C | 44% | 1009.5 hPa | - | - | - | - |
| 1788539777 | 22.22° C | 46% | 1009.7 hPa | - | - | - | - |
| 1788539093 | 22.22° C | 46% | 1010 hPa | - | - | - | - |
| 1788538482 | 22.22° C | 48% | 1010.4 hPa | - | - | - | - |
| 1788537846 | 22.22° C | 48% | 1010.5 hPa | - | - | - | - |
| 1788537223 | 21.67° C | 47% | 1010.7 hPa | - | - | - | - |
| 1788536604 | 22.22° C | 48% | 1010.8 hPa | - | - | - | - |
| 1788535978 | 21.67° C | 49% | 1011 hPa | - | - | - | - |
* Rain since midnight (hover to see other rain measurements)
** Current wind speed in m/s (hover to see current wind gust speed)